Ahoskie, NC

10:41 AM EST on January 20, 2018 (GMT -0500)
Tri County

Weather History for KASJ - March, 2014

Change the Weather History Date:

Saturday, March 15, 2014

  Actual Average (KEMV) Record (KEMV)
Temperature  
Mean Temperature 58 °F -  
Max Temperature 72 °F 58 °F 83 °F (1990)
Min Temperature 43 °F 34 °F 17 °F (1993)
Degree Days  
Heating Degree Days 8    
Growing Degree Days 8 (Base 50)    
Moisture  
Dew Point 36 °F    
Average Humidity 47    
Maximum Humidity 75    
Minimum Humidity 23    
Precipitation  
Precipitation 0.00 in - - ()
Sea Level Pressure  
Sea Level Pressure 30.00 in    
Wind  
Wind Speed 5 mph (SW)    
Max Wind Speed 9 mph    
Max Gust Speed 20 mph    
Visibility 10 miles    
Events      
Averages and records for this station are not official NWS values.
T = Trace of Precipitation, MM = Missing Value Source: NWS Daily Summary

Daily Weather History Graph

Daily Weather History Graph

Search for Another Location

Airport or City:

Trip Planner

Search our weather history database for the weather conditions in past years. The results will help you decide how hot, cold, wet, or windy it might be!

Date:

Astronomy

Mar. 15, 2014 Rise Set
Actual Time 7:19 AM EDT 7:16 PM EDT
Civil Twilight 6:53 AM EDT 7:41 PM EDT
Nautical Twilight 6:24 AM EDT 8:11 PM EDT
Astronomical Twilight 5:53 AM EDT 8:41 PM EDT
Moon 6:33 PM EDT (3/15) 6:29 AM EDT (3/15)
Length of Visible Light 12h 47m
Length of Day
11h 56m
Waxing Gibbous, 99% of the Moon is Illuminated
Mar 15
Waxing Gibbous
Mar 16
Full
Mar 23
Last Quarter
Mar 30
New
Apr 7
First Quarter

Hourly Weather History & Observations

Time (EDT) Temp. Dew Point Humidity Pressure Visibility Wind Dir Wind Speed Gust Speed Precip Events Conditions
12:10 AM 50.0 °F 31.5 °F 49% 30.10 in 10.0 mi South 9.2 mph - N/A   Clear
12:30 AM 50.0 °F 32.0 °F 50% 30.09 in 10.0 mi SSW 6.9 mph - N/A   Clear
12:50 AM 50.0 °F 32.9 °F 52% 30.09 in 10.0 mi SSW 4.6 mph - N/A   Clear
1:10 AM 50.2 °F 34.2 °F 54% 30.08 in 10.0 mi SSW 5.8 mph - N/A   Clear
1:30 AM 50.5 °F 35.6 °F 57% 30.07 in 10.0 mi SSW 6.9 mph - N/A   Clear
1:50 AM 50.9 °F 36.7 °F 58% 30.07 in 10.0 mi SSW 6.9 mph - N/A   Clear
2:10 AM 51.1 °F 37.6 °F 60% 30.06 in 10.0 mi SSW 6.9 mph - N/A   Clear
2:30 AM 51.1 °F 38.3 °F 62% 30.06 in 10.0 mi SSW 5.8 mph - N/A   Clear
2:50 AM 51.4 °F 39.0 °F 63% 30.05 in 10.0 mi SSW 9.2 mph - N/A   Clear
3:10 AM 50.9 °F 39.4 °F 65% 30.04 in 10.0 mi SSW 5.8 mph - N/A   Scattered Clouds
3:30 AM 51.1 °F 39.6 °F 65% 30.03 in 10.0 mi SSW 4.6 mph - N/A   Scattered Clouds
3:50 AM 51.1 °F 39.9 °F 66% 30.02 in 10.0 mi SSW 5.8 mph - N/A   Clear
4:10 AM 50.9 °F 40.1 °F 67% 30.01 in 10.0 mi SSW 4.6 mph - N/A   Clear
4:30 AM 51.1 °F 40.1 °F 66% 30.01 in 10.0 mi SSW 4.6 mph - N/A   Clear
4:50 AM 51.4 °F 40.1 °F 65% 30.01 in 10.0 mi SSW 5.8 mph - N/A   Clear
5:10 AM 51.8 °F 40.3 °F 65% 30.00 in 10.0 mi SSW 5.8 mph - N/A   Mostly Cloudy
5:30 AM 52.0 °F 40.3 °F 64% 30.00 in 10.0 mi SSW 5.8 mph - N/A   Overcast
5:50 AM 52.0 °F 40.3 °F 64% 30.00 in 10.0 mi SSW 5.8 mph - N/A   Overcast
6:10 AM 51.8 °F 40.3 °F 65% 30.00 in 10.0 mi SSW 4.6 mph - N/A   Overcast
6:30 AM 50.5 °F 39.7 °F 66% 29.99 in 10.0 mi SSW 3.5 mph - N/A   Scattered Clouds
6:55 AM 49.6 °F 39.4 °F 68% 29.99 in 10.0 mi SSW 3.5 mph - N/A   Clear
7:10 AM 49.6 °F 39.4 °F 68% 30.00 in 10.0 mi SW 3.5 mph - N/A   Clear
7:30 AM 49.1 °F 39.4 °F 69% 30.00 in 10.0 mi SW 3.5 mph - N/A   Clear
7:50 AM 50.4 °F 40.1 °F 68% 30.01 in 10.0 mi SW 3.5 mph - N/A   Clear
8:10 AM 51.8 °F 40.3 °F 65% 30.01 in 10.0 mi SW 3.5 mph - N/A   Clear
8:30 AM 53.4 °F 40.5 °F 61% 30.01 in 10.0 mi Calm Calm - N/A   Clear
8:50 AM 55.2 °F 40.3 °F 57% 30.01 in 10.0 mi SW 4.6 mph - N/A   Clear
9:10 AM 56.8 °F 39.4 °F 52% 30.01 in 10.0 mi SW 3.5 mph - N/A   Clear
9:30 AM 58.6 °F 39.0 °F 48% 30.01 in 10.0 mi Calm Calm - N/A   Clear
9:50 AM 60.1 °F 38.3 °F 44% 30.02 in 10.0 mi Calm Calm - N/A   Clear
10:10 AM 61.2 °F 37.9 °F 42% 30.01 in 10.0 mi WSW 3.5 mph - N/A   Clear
10:30 AM 63.0 °F 37.2 °F 38% 30.01 in 10.0 mi SW 3.5 mph - N/A   Clear
10:50 AM 64.6 °F 37.6 °F 37% 30.01 in 10.0 mi Calm Calm - N/A   Clear
11:10 AM 65.5 °F 37.2 °F 35% 30.01 in 10.0 mi SW 3.5 mph - N/A   Clear
11:30 AM 66.6 °F 36.7 °F 33% 30.00 in 10.0 mi WSW 3.5 mph - N/A   Clear
11:50 AM 68.0 °F 36.3 °F 31% 30.00 in 10.0 mi WNW 4.6 mph - N/A   Clear
12:10 PM 68.7 °F 36.1 °F 30% 29.99 in 10.0 mi Calm Calm - N/A   Clear
12:30 PM 67.8 °F 34.2 °F 29% 29.99 in 10.0 mi West 4.6 mph - N/A   Clear
12:50 PM 68.9 °F 34.7 °F 28% 29.98 in 10.0 mi West 6.9 mph - N/A   Clear
1:10 PM 69.6 °F 34.2 °F 27% 29.98 in 10.0 mi WSW 3.5 mph - N/A   Clear
1:30 PM 70.3 °F 34.3 °F 27% 29.96 in 10.0 mi WSW 5.8 mph - N/A   Clear
1:50 PM 70.0 °F 32.7 °F 25% 29.96 in 10.0 mi WNW 8.1 mph 19.6 mph N/A   Clear
2:10 PM 70.3 °F 33.1 °F 25% 29.95 in 10.0 mi West 4.6 mph 16.1 mph N/A   Clear
2:30 PM 71.1 °F 33.8 °F 25% 29.94 in 10.0 mi WSW 4.6 mph - N/A   Clear
2:50 PM 70.7 °F 33.1 °F 25% 29.93 in 10.0 mi West 5.8 mph - N/A   Clear
3:10 PM 72.3 °F 34.3 °F 25% 29.93 in 10.0 mi West 3.5 mph - N/A   Clear
3:30 PM 70.9 °F 32.7 °F 24% 29.93 in 10.0 mi West 3.5 mph - N/A   Clear
3:50 PM 71.6 °F 34.3 °F 25% 29.92 in 10.0 mi WSW 4.6 mph - N/A   Clear
4:10 PM 71.2 °F 32.2 °F 24% 29.92 in 10.0 mi WNW 3.5 mph - N/A   Clear
4:30 PM 71.8 °F 33.3 °F 24% 29.92 in 10.0 mi West 4.6 mph - N/A   Clear
4:50 PM 71.6 °F 32.0 °F 23% 29.92 in 10.0 mi WSW 6.9 mph - N/A   Clear
5:10 PM 71.4 °F 32.2 °F 24% 29.91 in 10.0 mi Calm Calm - N/A   Clear
5:30 PM 71.2 °F 32.2 °F 24% 29.92 in 10.0 mi Calm Calm - N/A   Clear
5:50 PM 70.3 °F 31.6 °F 24% 29.92 in 10.0 mi Calm Calm - N/A   Clear
6:10 PM 69.3 °F 32.2 °F 25% 29.93 in 10.0 mi Calm Calm - N/A   Clear
6:30 PM 68.5 °F 32.0 °F 26% 29.94 in 10.0 mi West 3.5 mph - N/A   Clear
6:50 PM 66.0 °F 32.9 °F 29% 29.95 in 10.0 mi Calm Calm - N/A   Clear
7:10 PM 62.4 °F 33.3 °F 34% 29.96 in 10.0 mi Calm Calm - N/A   Clear
7:30 PM 61.3 °F 34.0 °F 36% 29.97 in 10.0 mi Calm Calm - N/A   Clear
7:50 PM 57.7 °F 34.9 °F 42% 29.97 in 10.0 mi Calm Calm - N/A   Clear
8:10 PM 58.3 °F 34.3 °F 41% 29.97 in 10.0 mi Calm Calm - N/A   Clear
8:30 PM 55.9 °F 35.1 °F 45% 29.98 in 10.0 mi Calm Calm - N/A   Clear
8:50 PM 54.3 °F 36.0 °F 50% 29.99 in 10.0 mi Calm Calm - N/A   Clear
9:10 PM 51.6 °F 36.7 °F 57% 29.99 in 10.0 mi Calm Calm - N/A   Clear
9:30 PM 51.4 °F 37.0 °F 58% 30.00 in 10.0 mi Calm Calm - N/A   Clear
9:50 PM 48.9 °F 36.1 °F 61% 30.01 in 10.0 mi Calm Calm - N/A   Clear
10:10 PM 47.3 °F 36.3 °F 66% 30.02 in 10.0 mi Calm Calm - N/A   Clear
10:30 PM 48.4 °F 36.5 °F 64% 30.03 in 10.0 mi Calm Calm - N/A   Clear
10:50 PM 46.6 °F 36.0 °F 67% 30.03 in 10.0 mi Calm Calm - N/A   Clear
11:10 PM 45.9 °F 36.7 °F 70% 30.04 in 10.0 mi Calm Calm - N/A   Clear
11:30 PM 43.5 °F 36.0 °F 75% 30.04 in 10.0 mi Calm Calm - N/A   Clear
11:50 PM 45.5 °F 36.7 °F 71% 30.04 in 10.0 mi Calm Calm - N/A   Clear